Вернуться в каталог

STARLINK-35548

АктивенСвязьVLEO
NORAD 66203·PAYLOAD·🇺🇸 United States

Запущен Oct 26, 2025 с Cape Canaveral Space Force Station

Loading…

Ближайшие Пролёты (ближайшие 24 часа)

TLE

СвежийSource: CelesTrak SupGP

Эпоха: Sep 14, 2026, 21:20 UTC

1 66203C 25243AC  26257.88937500 -.00013637  00000+0 -40298-3 0  2579
2 66203  53.1592  85.6611 0001309  84.4315 219.1468 15.34391661    10

Отслеживайте STARLINK-35548 в реальном времени с AllMySat

Download on the App Store